Total_Precipitation_Accumulation
0.26 0.25 0.26 0.24 0.18 0.15 0.17 0.22 0.44 0.72 0.99 1.28 1.31 1.32 1.37 1.53 1.47 1.31 1.15 1.00 0.86 0.77 0.73 0.67 0.62 0.58 0.60 0.66 0.65 0.64 0.66 0.65 0.66 0.61 0.59 0.57 0.54 0.48 0.42 0.37 0.35 0.33 0.29 0.27
0.26 0.22 0.26 0.27 0.26 0.25 0.28 0.35 0.54 0.81 1.19 1.46 1.45 1.37 1.39 1.47 1.44 1.29 1.11 0.97 0.90 0.86 0.87 0.77 0.69 0.62 0.58 0.65 0.69 0.69 0.69 0.66 0.64 0.61 0.58 0.53 0.47 0.44 0.38 0.32 0.26 0.24 0.22 0.21
0.37 0.25 0.37 0.56 0.44 0.40 0.43 0.48 0.64 0.95 1.18 1.29 1.32 1.30 1.36 1.44 1.51 1.43 1.23 1.11 1.09 1.12 1.10 0.99 0.86 0.76 0.72 0.73 0.74 0.74 0.77 0.73 0.71 0.64 0.57 0.52 0.40 0.35 0.33 0.30 0.24 0.19 0.16 0.15
0.35 0.44 0.72 0.69 0.36 0.40 0.46 0.49 0.55 0.67 0.84 1.00 1.08 1.12 1.26 1.42 1.52 1.49 1.42 1.38 1.39 1.35 1.23 1.11 1.00 0.92 0.84 0.77 0.80 0.84 0.82 0.77 0.68 0.56 0.47 0.42 0.39 0.33 0.28 0.25 0.23 0.20 0.16 0.14
0.44 0.64 0.81 0.66 0.38 0.33 0.50 0.60 0.52 0.57 0.59 0.62 0.64 0.73 1.05 1.23 1.31 1.35 1.39 1.36 1.27 1.19 1.14 1.08 0.98 0.90 0.79 0.72 0.70 0.73 0.69 0.63 0.57 0.50 0.45 0.42 0.40 0.37 0.32 0.26 0.21 0.16 0.14 0.13
0.48 0.67 0.89 0.78 0.34 0.19 0.40 0.82 0.63 0.56 0.55 0.57 0.63 0.71 0.79 0.86 0.91 0.99 1.04 1.06 1.04 1.00 0.96 0.91 0.83 0.74 0.66 0.61 0.57 0.55 0.53 0.51 0.45 0.42 0.42 0.42 0.36 0.33 0.29 0.24 0.20 0.14 0.13 0.14
0.51 0.67 0.79 0.39 0.17 0.27 0.73 0.99 0.72 0.61 0.58 0.62 0.71 0.64 0.49 0.52 0.63 0.75 0.84 0.88 0.87 0.86 0.86 0.74 0.60 0.54 0.54 0.51 0.48 0.39 0.35 0.39 0.39 0.38 0.37 0.36 0.33 0.31 0.30 0.26 0.24 0.21 0.19 0.19
0.55 0.74 0.82 0.28 0.18 0.44 0.59 0.51 0.52 0.52 0.51 0.49 0.43 0.34 0.35 0.39 0.46 0.51 0.63 0.75 0.74 0.68 0.60 0.52 0.45 0.47 0.49 0.46 0.37 0.30 0.30 0.35 0.37 0.35 0.29 0.28 0.30 0.31 0.28 0.26 0.24 0.23 0.22 0.20
0.56 0.69 0.51 0.18 0.18 0.24 0.25 0.32 0.32 0.33 0.33 0.28 0.24 0.26 0.28 0.33 0.39 0.43 0.48 0.56 0.58 0.52 0.47 0.45 0.44 0.45 0.44 0.39 0.33 0.31 0.32 0.34 0.33 0.29 0.26 0.26 0.27 0.28 0.26 0.24 0.20 0.19 0.19 0.18
0.35 0.41 0.24 0.14 0.11 0.12 0.15 0.20 0.21 0.26 0.33 0.26 0.23 0.23 0.25 0.29 0.35 0.41 0.44 0.44 0.44 0.42 0.40 0.42 0.39 0.38 0.37 0.31 0.30 0.33 0.35 0.33 0.29 0.28 0.27 0.25 0.22 0.19 0.19 0.19 0.16 0.16 0.17 0.16
0.29 0.27 0.19 0.17 0.12 0.08 0.10 0.12 0.15 0.25 0.34 0.32 0.26 0.25 0.24 0.26 0.32 0.38 0.42 0.43 0.42 0.40 0.37 0.33 0.32 0.29 0.26 0.25 0.26 0.29 0.29 0.27 0.27 0.26 0.24 0.22 0.17 0.13 0.12 0.11 0.07 0.08 0.10 0.10
0.29 0.22 0.20 0.19 0.13 0.09 0.14 0.19 0.22 0.29 0.37 0.32 0.27 0.25 0.23 0.25 0.28 0.31 0.36 0.38 0.38 0.33 0.32 0.28 0.25 0.23 0.21 0.20 0.19 0.24 0.26 0.23 0.20 0.20 0.19 0.15 0.15 0.14 0.08 0.04 0.03 0.02 0.02 0.03
0.13 0.11 0.11 0.12 0.13 0.17 0.22 0.24 0.30 0.36 0.32 0.24 0.26 0.27 0.25 0.27 0.26 0.26 0.27 0.29 0.31 0.27 0.24 0.22 0.21 0.20 0.18 0.15 0.16 0.19 0.20 0.16 0.12 0.10 0.12 0.11 0.12 0.16 0.18 0.10 0.03 0.02 0.02 0.03
0.15 0.18 0.23 0.25 0.27 0.26 0.25 0.23 0.25 0.26 0.24 0.21 0.23 0.28 0.26 0.24 0.22 0.20 0.23 0.24 0.21 0.19 0.18 0.18 0.19 0.17 0.12 0.11 0.12 0.13 0.11 0.06 0.05 0.07 0.07 0.06 0.07 0.09 0.13 0.19 0.18 0.14 0.06 0.03
0.23 0.25 0.28 0.25 0.23 0.23 0.20 0.18 0.19 0.21 0.21 0.23 0.22 0.24 0.23 0.22 0.21 0.19 0.17 0.13 0.12 0.13 0.14 0.13 0.12 0.12 0.09 0.07 0.07 0.07 0.06 0.06 0.04 0.03 0.03 0.03 0.04 0.05 0.06 0.10 0.17 0.21 0.18 0.09
0.18 0.16 0.15 0.16 0.17 0.18 0.18 0.18 0.19 0.20 0.20 0.20 0.21 0.20 0.18 0.16 0.14 0.12 0.10 0.09 0.13 0.14 0.12 0.11 0.09 0.08 0.05 0.04 0.05 0.06 0.05 0.03 0.03 0.02 0.02 0.02 0.02 0.02 0.04 0.07 0.12 0.17 0.16 0.11
0.13 0.13 0.13 0.13 0.12 0.13 0.14 0.13 0.12 0.12 0.13 0.14 0.13 0.11 0.10 0.09 0.09 0.09 0.09 0.10 0.11 0.11 0.09 0.07 0.05 0.03 0.01 0.02 0.02 0.02 0.02 0.01 0.01 0.01 0.01 0.01 0.01 0.01 0.02 0.04 0.08 0.11 0.08 0.06
0.13 0.11 0.10 0.09 0.08 0.07 0.08 0.07 0.06 0.06 0.07 0.07 0.05 0.05 0.06 0.07 0.08 0.08 0.09 0.09 0.09 0.08 0.07 0.04 0.02 0.02 0.01 0.01 0.01 0.01 0.01 0.01 0.00 0.00 0.00 0.00 0.01 0.01 0.01 0.02 0.05 0.06 0.06 0.06
0.11 0.06 0.04 0.04 0.04 0.04 0.04 0.04 0.04 0.03 0.02 0.02 0.02 0.04 0.05 0.05 0.06 0.06 0.07 0.08 0.08 0.08 0.06 0.02 0.01 0.02 0.01 0.01 0.01 0.01 0.00 0.00 0.00 0.00 0.00 0.00 0.00 0.00 0.00 0.01 0.02 0.03 0.04 0.05
0.06 0.03 0.01 0.02 0.02 0.02 0.03 0.02 0.01 0.01 0.01 0.01 0.01 0.02 0.03 0.03 0.03 0.04 0.05 0.07 0.08 0.04 0.02 0.01 0.00 0.01 0.01 0.01 0.00 0.00 0.00 0.00 0.00 0.00 0.00 0.00 0.00 0.00 0.00 0.00 0.01 0.02 0.03 0.05
0.03 0.01 0.01 0.01 0.01 0.01 0.01 0.01 0.01 0.01 0.01 0.01 0.01 0.01 0.02 0.02 0.02 0.04 0.05 0.08 0.07 0.03 0.01 0.00 0.00 0.01 0.01 0.00 0.00 0.00 0.00 0.00 0.00 0.00 0.00 0.00 0.00 0.00 0.01 0.01 0.01 0.01 0.02 0.03
0.03 0.02 0.01 0.01 0.01 0.01 0.01 0.01 0.00 0.00 0.00 0.01 0.01 0.01 0.01 0.02 0.03 0.04 0.05 0.06 0.04 0.01 0.00 0.00 0.00 0.00 0.00 0.00 0.00 0.00 0.00 0.00 0.00 0.00 0.00 0.00 0.00 0.00 0.00 0.00 0.00 0.01 0.01 0.02
0.03 0.02 0.01 0.01 0.01 0.00 0.01 0.01 0.00 0.00 0.00 0.00 0.00 0.01 0.02 0.02 0.02 0.02 0.03 0.02 0.01 0.00 0.00 0.00 0.00 0.00 0.00 0.00 0.00 0.00 0.00 0.00 0.00 0.00 0.00 0.00 0.00 0.00 0.00 0.00 0.00 0.00 0.00 0.01
0.04 0.02 0.01 0.02 0.02 0.01 0.01 0.01 0.00 0.00 0.00 0.00 0.00 0.01 0.01 0.01 0.01 0.01 0.01 0.00 0.00 0.00 0.00 0.00 0.00 0.00 0.00 0.00 0.00 0.00 0.00 0.00 0.00 0.00 0.00 0.00 0.00 0.00 0.00 0.00 0.00 0.00 0.00 0.00
0.05 0.03 0.02 0.03 0.03 0.02 0.02 0.02 0.01 0.01 0.00 0.00 0.00 0.00 0.00 0.00 0.00 0.00 0.00 0.00 0.00 0.00 0.00 0.00 0.00 0.00 0.00 0.00 0.00 0.00 0.00 0.00 0.00 0.00 0.00 0.00 0.00 0.00 0.00 0.00 0.00 0.00 0.00 0.00
0.12 0.07 0.05 0.05 0.03 0.02 0.02 0.02 0.01 0.01 0.00 0.00 0.00 0.00 0.00 0.00 0.00 0.00 0.00 0.00 0.00 0.00 0.00 0.00 0.00 0.00 0.00 0.00 0.00 0.00 0.00 0.00 0.00 0.00 0.00 0.00 0.00 0.00 0.00 0.00 0.00 0.00 0.00 0.00
0.27 0.18 0.13 0.10 0.06 0.02 0.02 0.02 0.01 0.00 0.00 0.00 0.00 0.00 0.00 0.00 0.00 0.00 0.00 0.00 0.00 0.00 0.00 0.00 0.00 0.00 0.00 0.00 0.00 0.00 0.00 0.00 0.00 0.00 0.00 0.00 0.00 0.00 0.00 0.00 0.00 0.00 0.00 0.00